Tracking 31027 objects as of 19-Jul-2025
HD Live streaming from Space Station
objects crossing your sky now

SL-8 DEB

Track SL-8 DEB now!
10-day predictions


NORAD ID: 19831
Int'l Code: 1989-005C
Perigee: 685.9 km
Apogee: 703.7 km
Inclination: 74.1 °
Period: 98.5 minutes
Semi major axis: 7065 km
RCS: 0.0065 m2 (small)
Launch date: January 26, 1989
Source: Commonwealth of Independent States (former USSR) (CIS)
Launch site: PLESETSK MISSILE AND SPACE COMPLEX (PKMTR)

Note: This is SATELLITE DEBRIS
Your satellite tracking list
CZ-2C R/B
Track 1 satellite(s)




NASA's NSSDC Master Catalog

Two Line Element Set (TLE):
1 19831U 89005C   25199.80523359  .00001400  00000-0  28678-3 0  9994
2 19831  74.0640  90.7164 0012585 194.9782 279.0283 14.61695987923981
Source of the keplerian elements: AFSPC